Lamar, CO

4:32 AM MST on December 11, 2019 (GMT -0700)
Lamar Municipal

Weather History for KLAA - October, 2019

Change the Weather History Date:

Tuesday, October 29, 2019

  Actual Average Record
Temperature  
Mean Temperature 24 °F 47 °F  
Max Temperature 27 °F 65 °F 91 °F (2003)
Min Temperature 20 °F 30 °F 8 °F (1991)
Degree Days  
Heating Degree Days 41 18  
Month to date heating degree days 467 348  
Since 1 July heating degree days 473 431  
Cooling Degree Days 0 0  
Month to date cooling degree days 1 8  
Year to date cooling degree days 1406 1120  
Moisture  
Dew Point 22 °F    
Average Humidity 83    
Maximum Humidity 92    
Minimum Humidity 74    
Precipitation  
Precipitation 0.04 in 0.02 in 0.28 in (1993)
Month to date precipitation 0.19 0.76  
Year to date precipitation 7.94 14.38  
Sea Level Pressure  
Sea Level Pressure 30.16 in    
Wind  
Wind Speed 10 mph (ENE)    
Max Wind Speed 21 mph    
Max Gust Speed 28 mph    
Visibility 5 miles    
Events Fog , Rain , Snow    
T = Trace of Precipitation, MM = Missing Value Source: NWS Daily Summary

Daily Weather History Graph

Daily Weather History Graph

Search for Another Location

Airport or City:

Astronomy

Oct. 29, 2019 Rise Set
Actual Time 7:13 AM MDT 5:55 PM MDT
Civil Twilight 6:46 AM MDT 6:22 PM MDT
Nautical Twilight 6:15 AM MDT 6:53 PM MDT
Astronomical Twilight 5:44 AM MDT 7:23 PM MDT
Moon 8:48 AM MDT (10/29) 7:22 PM MDT (10/29)
Length of Visible Light 11h 36m
Length of Day
10h 41m
Waxing Crescent, 3% of the Moon is Illuminated
Oct 29
Waxing Crescent
Nov 4
First Quarter
Nov 12
Full
Nov 19
Last Quarter
Nov 26
New

Hourly Weather History & Observations

Time (MDT) Temp. Windchill Dew Point Humidity Pressure Visibility Wind Dir Wind Speed Gust Speed Precip Events Conditions
12:53 AM 26.1 °F 16.8 °F 21.0 °F 81% 30.10 in 10.0 mi SSE 9.2 mph - N/A   Overcast
1:53 AM 26.1 °F 15.0 °F 21.0 °F 81% 30.12 in 10.0 mi SSE 12.7 mph - N/A   Overcast
2:53 AM 26.1 °F 17.6 °F 19.9 °F 78% 30.12 in 10.0 mi ESE 8.1 mph - N/A   Mostly Cloudy
3:22 AM 26.1 °F 18.4 °F 21.0 °F 81% 30.05 in 10.0 mi East 6.9 mph - N/A   Overcast
3:53 AM 26.1 °F 16.8 °F 21.0 °F 81% 30.09 in 10.0 mi East 9.2 mph - N/A   Overcast
4:53 AM 25.0 °F 16.3 °F 19.9 °F 81% 30.10 in 10.0 mi ENE 8.1 mph - N/A   Overcast
5:09 AM 25.0 °F 17.1 °F 19.9 °F 81% 30.03 in 10.0 mi East 6.9 mph - N/A   Overcast
5:53 AM 25.0 °F 16.3 °F 19.9 °F 81% 30.10 in 10.0 mi ESE 8.1 mph - N/A   Overcast
6:53 AM 25.0 °F 18.1 °F 21.0 °F 85% 30.12 in 10.0 mi East 5.8 mph - N/A   Overcast
7:53 AM 26.1 °F 16.8 °F 21.0 °F 81% 30.14 in 10.0 mi East 9.2 mph - N/A   Overcast
8:53 AM 26.1 °F 16.2 °F 21.0 °F 81% 30.16 in 10.0 mi East 10.4 mph - N/A   Overcast
9:53 AM 27.0 °F 16.7 °F 19.9 °F 75% 30.17 in 10.0 mi East 11.5 mph - N/A   Overcast
10:53 AM 26.1 °F 14.5 °F 21.0 °F 81% 30.18 in 10.0 mi East 13.8 mph - 0.00 in   Overcast
11:22 AM 26.1 °F 16.2 °F 23.0 °F 88% 30.12 in 5.0 mi East 10.4 mph - N/A   Overcast
11:40 AM 26.1 °F 15.6 °F 24.1 °F 92% 30.11 in 3.0 mi ENE 11.5 mph - N/A   Overcast
11:44 AM 26.1 °F 15.6 °F 24.1 °F 92% 30.11 in 2.5 mi East 11.5 mph - 0.00 in Rain Light Freezing Rain
11:53 AM 26.1 °F 15.6 °F 24.1 °F 92% 30.19 in 2.5 mi East 11.5 mph - 0.00 in   Overcast
12:02 PM 26.1 °F 15.6 °F 24.1 °F 92% 30.11 in 3.0 mi East 11.5 mph - N/A   Overcast
12:19 PM 27.0 °F 16.7 °F 25.0 °F 92% 30.10 in 3.0 mi East 11.5 mph - N/A   Overcast
12:53 PM 27.0 °F 17.3 °F 24.1 °F 89% 30.17 in 6.0 mi East 10.4 mph - N/A   Overcast
1:53 PM 26.1 °F 15.0 °F 24.1 °F 92% 30.17 in 4.0 mi East 12.7 mph - N/A   Overcast
2:25 PM 26.1 °F 15.6 °F 23.0 °F 88% 30.09 in 4.0 mi East 11.5 mph - N/A   Overcast
2:53 PM 26.1 °F 16.2 °F 24.1 °F 92% 30.17 in 6.0 mi East 10.4 mph - N/A   Overcast
3:05 PM 26.1 °F 16.2 °F 24.1 °F 92% 30.10 in 4.0 mi East 10.4 mph - 0.00 in Rain Light Freezing Rain
3:22 PM 25.0 °F 13.6 °F 23.0 °F 92% 30.10 in 3.0 mi East 12.7 mph - 0.00 in   Overcast
3:50 PM 26.6 °F 15.7 °F 24.8 °F 93% 30.10 in 4.0 mi East 12.7 mph - 0.00 in   Overcast
3:53 PM 25.0 °F 14.2 °F 23.0 °F 92% 30.18 in 5.0 mi East 11.5 mph - 0.00 in   Overcast
4:07 PM 25.0 °F 13.1 °F 23.0 °F 92% 30.10 in 5.0 mi East 13.8 mph - N/A   Overcast
4:46 PM 26.1 °F 16.8 °F 23.0 °F 88% 30.11 in 3.0 mi East 9.2 mph - 0.00 in Rain Light Freezing Rain
4:53 PM 26.1 °F 16.8 °F 24.1 °F 92% 30.19 in 2.5 mi East 9.2 mph - 0.00 in Rain Light Freezing Rain
5:06 PM 26.1 °F 16.8 °F 24.1 °F 92% 30.11 in 2.0 mi East 9.2 mph - 0.00 in Rain Light Freezing Rain
5:15 PM 26.1 °F 15.0 °F 24.1 °F 92% 30.10 in 2.5 mi East 12.7 mph - 0.00 in Rain Light Freezing Rain
5:28 PM 26.1 °F 16.2 °F 23.0 °F 88% 30.11 in 2.5 mi East 10.4 mph - 0.00 in Rain Light Freezing Rain
5:38 PM 26.1 °F 16.2 °F 24.1 °F 92% 30.11 in 2.5 mi East 10.4 mph - 0.00 in Rain Light Freezing Rain
5:42 PM 26.1 °F 16.2 °F 24.1 °F 92% 30.11 in 4.0 mi East 10.4 mph - 0.00 in   Overcast
5:49 PM 26.6 °F 16.8 °F 23.0 °F 86% 30.12 in 6.0 mi East 10.4 mph - 0.00 in   Overcast
5:53 PM 26.1 °F 16.2 °F 23.0 °F 88% 30.20 in 6.0 mi East 10.4 mph - 0.00 in   Overcast
6:12 PM 26.1 °F 17.6 °F 24.1 °F 92% 30.13 in 4.0 mi East 8.1 mph - 0.00 in Rain Light Freezing Rain
6:30 PM 26.1 °F 15.0 °F 23.0 °F 88% 30.13 in 6.0 mi East 12.7 mph - 0.00 in   Overcast
6:37 PM 26.1 °F 15.6 °F 24.1 °F 92% 30.12 in 6.0 mi East 11.5 mph - 0.00 in   Overcast
6:53 PM 26.1 °F 16.2 °F 23.0 °F 88% 30.22 in 7.0 mi East 10.4 mph - 0.00 in   Overcast
7:53 PM 26.1 °F 16.8 °F 23.0 °F 88% 30.24 in 9.0 mi ENE 9.2 mph - 0.00 in Snow Light Snow
8:02 PM 26.1 °F 15.6 °F 23.0 °F 88% 30.17 in 7.0 mi East 11.5 mph - 0.00 in Snow Light Snow
8:10 PM 25.0 °F 15.5 °F 23.0 °F 92% 30.17 in 7.0 mi East 9.2 mph - 0.00 in Snow Light Snow
8:43 PM 25.0 °F 17.1 °F 23.0 °F 92% 30.18 in 2.5 mi East 6.9 mph - 0.00 in Snow Light Snow
8:50 PM 26.6 °F 19.1 °F 23.0 °F 86% 30.20 in 2.5 mi ENE 6.9 mph - 0.00 in Snow Light Snow
8:53 PM 26.1 °F 18.4 °F 23.0 °F 88% 30.28 in 2.5 mi ENE 6.9 mph - 0.00 in Snow Light Snow
9:18 PM 25.0 °F 16.3 °F 23.0 °F 92% 30.20 in 1.8 mi North 8.1 mph - 0.01 in Snow Light Snow
9:29 PM 21.9 °F 7.3 °F 19.0 °F 89% 30.21 in 1.5 mi NNE 18.4 mph 27.6 mph 0.01 in Snow Light Snow
9:53 PM 21.0 °F 7.1 °F 18.0 °F 88% 30.29 in 1.0 mi NNE 16.1 mph - 0.01 in Snow Light Snow
10:30 PM 21.0 °F 7.6 °F 18.0 °F 88% 30.22 in 0.8 mi NNE 15.0 mph 19.6 mph 0.01 in Snow Light Snow
10:38 PM 21.0 °F 7.6 °F 18.0 °F 88% 30.23 in 1.0 mi NNE 15.0 mph - 0.01 in Snow Light Snow
10:47 PM 19.4 °F 6.6 °F 17.6 °F 93% 30.22 in 0.8 mi NNE 12.7 mph - 0.01 in Snow Light Snow
10:48 PM 19.9 °F 7.9 °F 18.0 °F 92% 30.31 in 0.8 mi NNE 11.5 mph - 0.02 in Snow Light Snow
11:15 PM 19.9 °F 8.6 °F 18.0 °F 92% 30.24 in 0.5 mi NNE 10.4 mph 20.7 mph 0.01 in Fog , Snow Snow
11:24 PM 19.9 °F 6.2 °F 18.0 °F 92% 30.24 in 0.8 mi NNE 15.0 mph - 0.01 in Snow Light Snow
11:34 PM 19.9 °F 7.3 °F 18.0 °F 92% 30.23 in 1.2 mi NNE 12.7 mph - 0.01 in Snow Light Snow
11:43 PM 19.9 °F 7.9 °F 17.1 °F 89% 30.23 in 1.2 mi NNE 11.5 mph 21.9 mph 0.01 in Snow Light Snow
11:53 PM 19.9 °F 8.6 °F 17.1 °F 89% 30.33 in 1.2 mi NNE 10.4 mph - 0.01 in Snow Light Snow